Location: Ann Arbor
(42.2710°N, 83.7260°W)
Time: 08:41:58
(UTC-04:00)

Amateur Radio Satellites - All Passes

Search period start: 20 October 2017 08:11
Search period end: 21 October 2017 08:11
Location: Ann Arbor, 42.2710°N, 83.7260°W

Satellite Date Start Highest point End Downlink Frequencies (MHz)
Time Altitude Azimuth
RS-15 20 Oct 08:20:28 08:30:58 32° 26° (NNE) 08:41:00 29.354- 29.394
XW-2C 20 Oct 08:30:22 08:33:33 27° 290° (WNW) 08:36:43 145.795 - 145.815
NO-84 20 Oct 08:31:11 08:33:20 14° 5° (N) 08:35:25 435.350 FM
CUBEBUG 2 20 Oct 08:33:58 08:38:14 35° 96° (E) 08:42:22 437.445
YUBILEINY 20 Oct 08:35:49 08:39:31 13° 74° (ENE) 08:43:13 435.215
ZACube-1 20 Oct 08:51:55 08:54:39 16° 91° (E) 08:57:19 437.345
STRAND 1 20 Oct 08:52:09 08:56:56 39° 262° (W) 09:01:46 437.568
HO-68 20 Oct 09:04:02 09:11:17 89° 105° (ESE) 09:18:30 435.675
PCSat 20 Oct 09:05:23 09:10:38 53° 114° (ESE) 09:15:55 145.827
SO-50 20 Oct 09:07:19 09:11:11 28° 314° (NW) 09:15:04 436.795
CUTE 1.7 + AOD 2 20 Oct 09:12:29 09:16:33 49° 287° (WNW) 09:20:36 437.475
UWE-3 20 Oct 09:12:32 09:16:57 51° 99° (E) 09:21:13 435.000/436.395/437.385
CUTE-I 20 Oct 09:13:31 09:17:51 26° 296° (WNW) 09:22:11 437.470
KAITUO 1B 20 Oct 09:15:44 09:17:06 12° 296° (WNW) 09:18:28 145.475/437.950
UNISAT 6 20 Oct 09:16:58 09:19:30 15° 62° (ENE) 09:22:02 437.425
SEEDS 20 Oct 09:20:01 09:24:10 67° 285° (WNW) 09:28:18 437.485
Oscar 11 20 Oct 09:28:29 09:32:00 24° 94° (E) 09:35:28 .
TIGRISAT 20 Oct 09:31:04 09:34:15 18° 64° (ENE) 09:37:27 435.000
XW-2A 20 Oct 09:32:26 09:35:47 70° 284° (WNW) 09:39:04 145.665 - 145.685
AAUSAT CUBESAT 2 20 Oct 09:44:38 09:48:47 81° 282° (WNW) 09:52:54 437.432
FO-29 20 Oct 09:54:16 09:59:26 71° 258° (WSW) 10:05:02 435.910
AO-73 20 Oct 10:04:52 10:09:16 90° 28° (NNE) 10:13:31 145.935
NO-84 20 Oct 10:08:25 10:11:50 27° 26° (NNE) 10:15:02 435.350 FM
CUBEBUG 2 20 Oct 10:10:54 10:14:39 24° 294° (WNW) 10:18:17 437.445
PRISM 20 Oct 10:24:51 10:28:18 28° 68° (ENE) 10:31:46 437.425
YUBILEINY 20 Oct 10:26:00 10:34:38 74° 93° (E) 10:43:20 435.215
nSIGHT-1 20 Oct 10:26:14 10:28:54 25° 136° (SE) 10:31:35 .
ZACube-1 20 Oct 10:26:59 10:31:11 46° 288° (WNW) 10:35:16 437.345
EO-88 20 Oct 10:29:29 10:30:16 11° 90° (E) 10:31:02 145.990 - 145.960
RS-15 20 Oct 10:33:36 10:45:40 80° 55° (NE) 10:57:01 29.354- 29.394
Max Valier Satellite 20 Oct 10:37:11 10:39:53 19° 94° (E) 10:42:34 145.860
PCSat 20 Oct 10:49:50 10:54:20 26° 313° (NW) 10:58:51 145.827
UWE-3 20 Oct 10:50:06 10:52:57 17° 297° (WNW) 10:55:44 435.000/436.395/437.385
UNISAT 6 20 Oct 10:51:01 10:55:37 67° 259° (W) 11:00:19 437.425
HO-68 20 Oct 10:53:16 10:58:05 20° 306° (NW) 11:02:55 435.675
ISS 20 Oct 10:58:06 11:01:12 44° 140° (SE) 11:04:21 437.550
Oscar 11 20 Oct 11:04:21 11:08:08 30° 291° (WNW) 11:11:52 .
TIGRISAT 20 Oct 11:06:00 11:10:31 50° 261° (W) 11:15:06 435.000
DELFI C3 20 Oct 11:14:15 11:18:14 82° 103° (ESE) 11:22:12 145.870
AIST 2D 20 Oct 11:32:41 11:35:53 34° 72° (ENE) 11:39:05 435.315
NO-84 20 Oct 11:45:45 11:49:24 47° 227° (SW) 11:52:43 435.350 FM
EO-79 20 Oct 11:50:26 11:53:53 24° 67° (ENE) 11:57:20 145.935-145.965
POLYITAN 1 20 Oct 11:54:56 11:58:33 27° 68° (ENE) 12:02:11 437.675
PRISM 20 Oct 12:00:17 12:03:32 23° 265° (W) 12:06:49 437.425
EO-88 20 Oct 12:00:40 12:04:11 48° 286° (WNW) 12:07:40 145.990 - 145.960
nSIGHT-1 20 Oct 12:02:01 12:05:03 41° 333° (NNW) 12:08:07 .
Max Valier Satellite 20 Oct 12:10:34 12:13:42 27° 290° (WNW) 12:16:48 145.860
QB50P2 20 Oct 12:14:37 12:18:43 48° 72° (ENE) 12:22:52 145.880/145.840
NANOSAT C BR1 20 Oct 12:18:03 12:22:03 42° 72° (ENE) 12:26:06 145.865
YUBILEINY 20 Oct 12:25:28 12:32:18 25° 295° (WNW) 12:39:12 435.215
DUCHIFAT 1 20 Oct 12:28:45 12:32:50 48° 72° (ENE) 12:36:57 145.980
ISS 20 Oct 12:34:52 12:37:47 29° 338° (NNW) 12:40:42 437.550
BUGSAT 1 20 Oct 12:38:21 12:41:04 17° 64° (ENE) 12:43:48 437.445
RS-15 20 Oct 12:47:24 12:56:46 29° 258° (WSW) 13:05:46 29.354- 29.394
LO-87 20 Oct 12:50:21 12:54:00 81° 102° (ESE) 12:57:37 145.935 - 145.965
Oscar 19 20 Oct 12:56:14 12:59:32 17° 61° (ENE) 13:02:50 437.125/150
ESTCUBE 1 20 Oct 13:04:10 13:08:39 70° 103° (ESE) 13:13:07 437.505/2401.250
AIST 2D 20 Oct 13:07:19 13:09:10 14° 268° (W) 13:11:02 435.315
BEESAT 2 20 Oct 13:08:17 13:11:17 20° 112° (ESE) 13:14:18 435.950
BEESAT 3 20 Oct 13:24:00 13:27:59 79° 303° (WNW) 13:32:02 437.485
EO-79 20 Oct 13:25:44 13:29:29 30° 264° (W) 13:33:16 145.935-145.965
Gurwin Techsat 1B 20 Oct 13:26:21 13:30:27 23° 63° (ENE) 13:34:33 435.225
POLYITAN 1 20 Oct 13:30:36 13:34:14 27° 264° (W) 13:37:55 437.675
M-CUBED/EXP-1 PRIME 20 Oct 13:33:14 13:36:14 30° 66° (ENE) 13:39:10 437.505
nSIGHT-1 20 Oct 13:39:49 13:41:58 16° 352° (N) 13:44:06 .
SPROUT 20 Oct 13:45:42 13:49:53 48° 99° (E) 13:54:02 437.525
QB50P2 20 Oct 13:52:18 13:54:46 15° 269° (W) 13:57:15 145.880/145.840
NANOSAT C BR1 20 Oct 13:55:09 13:57:57 17° 268° (W) 14:00:46 145.865
DX 1 20 Oct 14:02:38 14:04:15 12° 90° (E) 14:05:50 434.975-435.025
DUCHIFAT 1 20 Oct 14:06:20 14:08:45 15° 269° (W) 14:11:11 145.980
BUGSAT 1 20 Oct 14:12:03 14:16:03 44° 261° (W) 14:20:07 437.445
ISS 20 Oct 14:12:55 14:15:02 16° 358° (N) 14:17:08 437.550
AO-7 20 Oct 14:15:43 14:21:38 22° 51° (NE) 14:27:32 .
UKube-1 20 Oct 14:26:13 14:28:21 13° 91° (E) 14:30:29 .
AO-85 20 Oct 14:28:42 14:32:34 84° 304° (NW) 14:36:34 145.980
VELOX 1 20 Oct 14:30:17 14:34:44 82° 285° (WNW) 14:39:11 145.980
Oscar 19 20 Oct 14:33:12 14:38:19 65° 258° (WSW) 14:43:28 437.125/150
ESTCUBE 1 20 Oct 14:42:54 14:44:52 13° 299° (WNW) 14:46:49 437.505/2401.250
BEESAT 2 20 Oct 14:44:59 14:48:45 38° 309° (NW) 14:52:34 435.950
BEESAT 3 20 Oct 15:04:44 15:06:13 12° 323° (NW) 15:07:41 437.485
Gurwin Techsat 1B 20 Oct 15:04:56 15:10:04 48° 261° (W) 15:15:13 435.225
50 SAT 20 Oct 15:05:51 15:09:10 84° 103° (ESE) 15:12:28 437.505
ITAMSAT 1 20 Oct 15:07:41 15:11:18 19° 61° (ENE) 15:14:54 435.822/435.867
M-CUBED/EXP-1 PRIME 20 Oct 15:08:55 15:10:46 14° 260° (W) 15:12:36 437.505
nSIGHT-1 20 Oct 15:16:47 15:19:07 18° 12° (NNE) 15:21:28 .
SPROUT 20 Oct 15:22:42 15:25:22 16° 296° (WNW) 15:28:02 437.525
DX 1 20 Oct 15:36:29 15:40:50 65° 286° (WNW) 15:45:09 434.975-435.025
BEESAT 20 Oct 15:48:36 15:51:11 14° 91° (E) 15:53:45 436.000
ISS 20 Oct 15:49:39 15:52:21 23° 18° (NNE) 15:55:03 437.550
SO-50 20 Oct 15:56:47 16:01:09 41° 50° (NE) 16:05:33 436.795
UKube-1 20 Oct 16:00:27 16:04:42 55° 287° (WNW) 16:08:55 .
AO-7 20 Oct 16:05:01 16:13:20 89° 71° (ENE) 16:21:40 .
PCSat 20 Oct 16:11:49 16:13:07 11° 33° (NNE) 16:14:23 145.827
AO-85 20 Oct 16:12:13 16:13:40 12° 324° (NW) 16:15:07 145.980
MOZHAYETS 4 20 Oct 16:38:53 16:43:23 54° 100° (E) 16:47:50
ITAMSAT 1 20 Oct 16:45:10 16:50:17 58° 259° (WSW) 16:55:27 435.822/435.867
CUBESAT XI-V 20 Oct 16:51:28 16:54:21 16° 91° (E) 16:57:14 437.345
nSIGHT-1 20 Oct 16:52:42 16:55:53 62° 32° (NNE) 16:59:04 .
ITUPSAT 1 20 Oct 17:09:06 17:13:56 89° 309° (NW) 17:18:43 437.325
CUTE-I 20 Oct 17:19:55 17:21:22 11° 56° (NE) 17:22:48 437.470
BEESAT 20 Oct 17:24:37 17:29:21 62° 287° (WNW) 17:34:03 436.000
ISS 20 Oct 17:25:51 17:29:07 76° 218° (SW) 17:32:23 437.550
DOVE 4 20 Oct 17:29:28 17:33:25 43° 71° (ENE) 17:37:33 437.250
SO-50 20 Oct 17:37:39 17:41:25 25° 247° (WSW) 17:45:12 436.795
XW-2C 20 Oct 17:39:42 17:41:08 12° 64° (ENE) 17:42:34 145.795 - 145.815
HO-68 20 Oct 17:49:36 17:53:14 15° 50° (NE) 17:56:51 435.675
PCSat 20 Oct 17:52:37 17:57:53 48° 55° (NE) 18:03:06 145.827
AO-7 20 Oct 18:01:37 18:07:04 19° 269° (W) 18:12:34 .
KKS-1 20 Oct 18:05:18 18:09:06 26° 96° (E) 18:12:52 437.445
MOZHAYETS 4 20 Oct 18:17:14 18:20:05 17° 297° (WNW) 18:22:56
KAITUO 1B 20 Oct 18:20:27 18:23:31 25° 69° (ENE) 18:26:35 145.475/437.950
XW-2F 20 Oct 18:22:10 18:25:35 33° 71° (ENE) 18:29:00 145.980 - 146.000
LilacSat-2 20 Oct 18:27:30 18:31:10 45° 73° (ENE) 18:34:49 437.200
CUBESAT XI-V 20 Oct 18:27:33 18:32:00 50° 288° (WNW) 18:36:27 437.345
nSIGHT-1 20 Oct 18:29:50 18:31:51 16° 228° (SW) 18:33:51 .
CUTE 1.7 + AOD 2 20 Oct 18:32:26 18:33:55 12° 62° (ENE) 18:35:22 437.475
NUDT-PHONESAT 20 Oct 18:33:57 18:37:20 34° 72° (ENE) 18:40:43 437.300
XW-2D 20 Oct 18:34:23 18:38:05 53° 74° (ENE) 18:41:48 145.860 - 145.880
STARS 20 Oct 18:37:40 18:41:17 24° 95° (E) 18:44:51 437.465
XW-2B 20 Oct 18:47:45 18:51:32 75° 77° (ENE) 18:55:20 145.730 - 145.750
ITUPSAT 1 20 Oct 18:49:33 18:51:00 11° 302° (WNW) 18:52:27 437.325
CUTE-I 20 Oct 18:55:10 19:00:28 76° 75° (ENE) 19:05:49 437.470
DOVE 4 20 Oct 19:08:48 19:11:24 16° 269° (W) 19:14:05 437.250
XW-2C 20 Oct 19:11:07 19:14:50 53° 260° (W) 19:18:34 145.795 - 145.815
CUBEBUG 2 20 Oct 19:32:00 19:36:08 32° 69° (ENE) 19:40:21 437.445
HO-68 20 Oct 19:32:35 19:39:41 70° 70° (ENE) 19:46:51 435.675
PCSat 20 Oct 19:36:37 19:40:58 25° 252° (WSW) 19:45:18 145.827
KKS-1 20 Oct 19:41:42 19:45:37 30° 292° (WNW) 19:49:31 437.445
ZACube-1 20 Oct 19:48:15 19:50:57 16° 63° (ENE) 19:53:40 437.345
KAITUO 1B 20 Oct 19:54:30 19:57:26 22° 265° (W) 20:00:23 145.475/437.950
XW-2F 20 Oct 19:57:19 19:59:47 17° 267° (W) 20:02:16 145.980 - 146.000
XW-2A 20 Oct 20:03:38 20:06:47 36° 73° (ENE) 20:09:58 145.665 - 145.685
LilacSat-2 20 Oct 20:03:55 20:05:39 13° 269° (W) 20:07:24 437.200
CUTE 1.7 + AOD 2 20 Oct 20:04:57 20:09:10 69° 259° (W) 20:13:23 437.475
BEESAT 3 20 Oct 20:05:08 20:05:46 10° 35° (NE) 20:06:25 437.485
NUDT-PHONESAT 20 Oct 20:08:59 20:11:18 16° 267° (W) 20:13:37 437.300
UWE-3 20 Oct 20:09:14 20:13:38 44° 72° (ENE) 20:18:06 435.000/436.395/437.385
SEEDS 20 Oct 20:11:32 20:15:43 86° 78° (ENE) 20:19:55 437.485
XW-2D 20 Oct 20:11:37 20:12:34 11° 270° (W) 20:13:31 145.860 - 145.880
STARS 20 Oct 20:13:39 20:17:37 33° 291° (WNW) 20:21:35 437.465
Oscar 11 20 Oct 20:23:57 20:27:11 21° 66° (ENE) 20:30:24 .
AAUSAT CUBESAT 2 20 Oct 20:34:39 20:38:44 68° 75° (ENE) 20:42:49 437.432
YUBILEINY 20 Oct 20:35:41 20:43:43 37° 71° (ENE) 20:51:43 435.215
CUTE-I 20 Oct 20:38:30 20:41:06 14° 271° (W) 20:43:42 437.470
AO-73 20 Oct 20:59:53 21:04:26 73° 76° (ENE) 21:09:00 145.935
STRAND 1 20 Oct 21:01:33 21:06:43 68° 102° (ESE) 21:11:50 437.568
FO-29 20 Oct 21:02:13 21:06:52 18° 90° (E) 21:11:46 435.910
CUBEBUG 2 20 Oct 21:08:44 21:12:42 28° 266° (W) 21:16:47 437.445
Max Valier Satellite 20 Oct 21:18:21 21:19:09 11° 63° (ENE) 21:19:57 145.860
AO-85 20 Oct 21:19:16 21:21:58 15° 40° (NE) 21:24:46 145.980
ZACube-1 20 Oct 21:22:13 21:26:44 59° 260° (W) 21:31:17 437.345
HO-68 20 Oct 21:22:37 21:27:59 22° 268° (W) 21:33:24 435.675
BEESAT 2 20 Oct 21:24:49 21:27:40 18° 43° (NE) 21:30:29 435.950
XW-2A 20 Oct 21:38:12 21:39:39 12° 268° (W) 21:41:06 145.665 - 145.685
BEESAT 3 20 Oct 21:40:07 21:44:06 68° 55° (NE) 21:47:58 437.485
O/OREOS (USA 219) 20 Oct 21:46:39 21:51:13 85° 295° (WNW) 21:55:50 437.305
UWE-3 20 Oct 21:46:56 21:50:16 19° 268° (W) 21:53:39 435.000/436.395/437.385
Oscar 11 20 Oct 21:59:03 22:03:04 37° 263° (W) 22:07:06 .
DELFI C3 20 Oct 21:59:38 22:03:22 46° 73° (ENE) 22:07:08 145.870
YUBILEINY 20 Oct 22:32:22 22:40:43 50° 271° (W) 22:49:05 435.215
EO-88 20 Oct 22:38:04 22:41:41 71° 76° (ENE) 22:45:20 145.990 - 145.960
AO-73 20 Oct 22:39:40 22:41:08 11° 271° (W) 22:42:35 145.935
STRAND 1 20 Oct 22:42:09 22:45:19 17° 299° (WNW) 22:48:28 437.568
UNISAT 6 20 Oct 22:42:42 22:46:31 25° 94° (E) 22:50:15 437.425
FO-29 20 Oct 22:45:31 22:52:27 86° 285° (WNW) 23:00:06 435.910
Max Valier Satellite 20 Oct 22:48:47 22:52:27 59° 260° (W) 22:56:10 145.860
TIGRISAT 20 Oct 22:57:09 23:01:19 33° 96° (E) 23:05:21 435.000
AO-85 20 Oct 22:58:21 23:02:55 89° 249° (WSW) 23:07:51 145.980
BEESAT 2 20 Oct 23:01:45 23:05:42 53° 241° (WSW) 23:09:34 435.950
BEESAT 3 20 Oct 23:20:15 23:21:02 10° 252° (WSW) 23:21:49 437.485
LO-87 20 Oct 23:26:35 23:29:49 32° 72° (ENE) 23:33:06 145.935 - 145.965
O/OREOS (USA 219) 20 Oct 23:29:56 23:31:22 11° 312° (NW) 23:32:49 437.305
DELFI C3 20 Oct 23:36:31 23:38:22 13° 269° (W) 23:40:14 145.870
PRISM 20 Oct 23:39:50 23:43:46 41° 99° (E) 23:47:41 437.425
ESTCUBE 1 21 Oct 00:03:47 00:08:14 67° 74° (ENE) 00:12:41 437.505/2401.250
UNISAT 6 21 Oct 00:19:08 00:23:14 32° 291° (WNW) 00:27:15 437.425
AIST 2D 21 Oct 00:29:42 00:32:59 38° 98° (E) 00:36:13 435.315
FO-29 21 Oct 00:32:19 00:36:42 18° 302° (WNW) 00:41:21 435.910
TIGRISAT 21 Oct 00:34:02 00:37:50 25° 293° (WNW) 00:41:32 435.000
SPROUT 21 Oct 00:39:10 00:43:08 39° 71° (ENE) 00:47:08 437.525
AO-85 21 Oct 00:41:37 00:42:46 11° 252° (WSW) 00:43:56 145.980
RS-15 21 Oct 00:56:11 01:07:43 50° 110° (ESE) 01:19:15 29.354- 29.394
DX 1 21 Oct 00:59:06 01:00:46 12° 61° (ENE) 01:02:28 434.975-435.025
LO-87 21 Oct 01:01:08 01:03:20 15° 267° (W) 01:05:33 145.935 - 145.965
EO-79 21 Oct 01:09:12 01:13:14 39° 98° (E) 01:17:13 145.935-145.965
POLYITAN 1 21 Oct 01:14:02 01:18:09 45° 99° (E) 01:22:12 437.675
PRISM 21 Oct 01:15:58 01:18:42 17° 295° (WNW) 01:21:27 437.425
UKube-1 21 Oct 01:21:34 01:23:39 13° 62° (ENE) 01:25:43 .
VELOX 1 21 Oct 01:27:34 01:31:56 88° 267° (W) 01:36:21 145.980
QB50P2 21 Oct 01:34:14 01:38:33 86° 106° (ESE) 01:42:47 145.880/145.840
50 SAT 21 Oct 01:34:58 01:37:43 26° 70° (ENE) 01:40:30 437.505
NANOSAT C BR1 21 Oct 01:36:56 01:41:11 74° 101° (ESE) 01:45:24 145.865
ESTCUBE 1 21 Oct 01:43:51 01:45:28 12° 270° (W) 01:47:05 437.505/2401.250
DUCHIFAT 1 21 Oct 01:47:21 01:51:37 84° 104° (ESE) 01:55:49 145.980
BUGSAT 1 21 Oct 01:53:26 01:56:54 24° 95° (E) 02:00:18 437.445
AIST 2D 21 Oct 02:04:11 02:05:48 13° 294° (WNW) 02:07:26 435.315
SPROUT 21 Oct 02:16:08 02:19:09 19° 267° (W) 02:22:12 437.525
DX 1 21 Oct 02:32:04 02:36:22 71° 258° (WSW) 02:40:42 434.975-435.025
ITUPSAT 1 21 Oct 02:41:11 02:43:38 14° 60° (ENE) 02:46:05 437.325
M-CUBED/EXP-1 PRIME 21 Oct 02:44:14 02:47:05 21° 102° (ESE) 02:50:04 437.505
Oscar 19 21 Oct 02:44:15 02:49:06 42° 99° (E) 02:53:56 437.125/150
EO-79 21 Oct 02:45:41 02:48:41 19° 295° (WNW) 02:51:41 145.935-145.965
POLYITAN 1 21 Oct 02:50:47 02:53:33 17° 296° (WNW) 02:56:19 437.675
UKube-1 21 Oct 02:54:53 02:59:08 62° 258° (WSW) 03:03:25 .
BEESAT 21 Oct 02:55:14 02:58:35 19° 63° (ENE) 03:01:56 436.000
NO-84 21 Oct 03:01:00 03:04:14 21° 126° (SE) 03:07:28 435.350 FM
RS-15 21 Oct 03:08:03 03:20:08 57° 314° (NW) 03:32:11 29.354- 29.394
50 SAT 21 Oct 03:08:03 03:10:04 15° 266° (W) 03:12:05 437.505
NANOSAT C BR1 21 Oct 03:15:00 03:16:15 11° 299° (WNW) 03:17:32 145.865
Gurwin Techsat 1B 21 Oct 03:20:17 03:25:35 64° 102° (ESE) 03:30:51 435.225
BUGSAT 1 21 Oct 03:28:33 03:32:13 29° 292° (WNW) 03:35:50 437.445
MOZHAYETS 4 21 Oct 03:40:49 03:45:20 55° 73° (ENE) 03:49:52
CUBESAT XI-V 21 Oct 03:55:21 03:58:29 18° 64° (ENE) 04:01:36 437.345
AO-7 21 Oct 04:06:43 04:13:38 28° 95° (E) 04:20:30 .
ITUPSAT 1 21 Oct 04:16:03 04:20:50 73° 257° (WSW) 04:25:40 437.325
M-CUBED/EXP-1 PRIME 21 Oct 04:18:28 04:21:28 26° 295° (WNW) 04:24:38 437.505
Oscar 19 21 Oct 04:24:05 04:28:11 25° 295° (WNW) 04:32:16 437.125/150
BEESAT 21 Oct 04:31:19 04:35:57 50° 260° (W) 04:40:38 436.000
NO-84 21 Oct 04:37:05 04:41:21 62° 323° (NW) 04:45:33 435.350 FM
ITAMSAT 1 21 Oct 04:57:23 05:02:26 47° 100° (E) 05:07:27 435.822/435.867
Gurwin Techsat 1B 21 Oct 05:01:27 05:05:00 18° 299° (WNW) 05:08:33 435.225
KKS-1 21 Oct 05:03:49 05:07:31 27° 67° (ENE) 05:11:14 437.445
MOZHAYETS 4 21 Oct 05:20:04 05:22:48 15° 269° (W) 05:25:33
RS-15 21 Oct 05:26:13 05:36:08 27° 344° (NNW) 05:45:53 29.354- 29.394
DOVE 4 21 Oct 05:28:13 05:30:48 14° 90° (E) 05:33:27 437.250
CUBESAT XI-V 21 Oct 05:30:59 05:35:28 49° 261° (W) 05:39:57 437.345
STARS 21 Oct 05:34:46 05:38:14 23° 66° (ENE) 05:41:44 437.465
AO-7 21 Oct 05:58:43 06:06:55 66° 293° (WNW) 06:15:06 .
NO-84 21 Oct 06:16:21 06:19:26 19° 341° (NNW) 06:22:27 435.350 FM
O/OREOS (USA 219) 21 Oct 06:17:33 06:21:12 23° 56° (NE) 06:24:49 437.305
ITAMSAT 1 21 Oct 06:37:30 06:41:35 24° 297° (WNW) 06:45:39 435.822/435.867
KKS-1 21 Oct 06:40:05 06:43:57 29° 264° (W) 06:47:52 437.445
STRAND 1 21 Oct 06:41:55 06:44:29 14° 59° (ENE) 06:47:04 437.568
XW-2C 21 Oct 06:44:12 06:46:15 14° 92° (E) 06:48:19 145.795 - 145.815
HO-68 21 Oct 07:03:29 07:05:26 11° 86° (E) 07:07:21 435.675
DOVE 4 21 Oct 07:03:53 07:08:53 73° 285° (WNW) 07:14:04 437.250
STARS 21 Oct 07:10:24 07:14:23 34° 262° (W) 07:18:25 437.465
CUTE-I 21 Oct 07:12:02 07:16:40 29° 95° (E) 07:21:18 437.470
KAITUO 1B 21 Oct 07:24:08 07:27:27 31° 97° (E) 07:30:44 145.475/437.950
XW-2F 21 Oct 07:27:09 07:30:44 44° 99° (E) 07:34:17 145.980 - 146.000
LilacSat-2 21 Oct 07:33:59 07:37:44 64° 101° (E) 07:41:27 437.200
NUDT-PHONESAT 21 Oct 07:36:50 07:40:21 42° 99° (E) 07:43:49 437.300
XW-2D 21 Oct 07:40:06 07:43:51 74° 103° (ESE) 07:47:34 145.860 - 145.880
RS-15 21 Oct 07:43:58 07:54:02 28° 20° (NNE) 08:03:42 29.354- 29.394
CUTE 1.7 + AOD 2 21 Oct 07:49:56 07:52:57 19° 93° (E) 07:55:58 437.475
SO-50 21 Oct 07:51:18 07:55:47 88° 303° (WNW) 08:00:18 436.795
AO-7 21 Oct 07:53:33 07:58:08 16° 314° (NW) 08:02:43 .
XW-2B 21 Oct 07:53:36 07:57:21 78° 284° (WNW) 08:01:04 145.730 - 145.750
NO-84 21 Oct 07:56:02 07:58:08 14° 2° (N) 08:00:13 435.350 FM
SEEDS 21 Oct 07:56:12 07:58:17 13° 91° (E) 08:00:21 437.485
O/OREOS (USA 219) 21 Oct 07:56:26 08:00:45 40° 254° (WSW) 08:05:01 437.305
